TimeEDT,TemperatureF,Dew PointF,Humidity,Sea Level PressureIn,VisibilityMPH,Wind Direction,Wind SpeedMPH,Gust SpeedMPH,PrecipitationIn,Events,Conditions,WindDirDegrees,DateUTC
12:15 AM,37.4,33.8,87,30.31,10.0,Calm,Calm,-,N/A,,Clear,0,2013-10-14 04:15:00
12:35 AM,39.2,35.6,87,30.31,10.0,Calm,Calm,-,N/A,,Clear,0,2013-10-14 04:35:00
12:55 AM,37.4,33.8,87,30.31,10.0,Calm,Calm,-,N/A,,Clear,0,2013-10-14 04:55:00
1:15 AM,37.4,33.8,87,30.31,10.0,Calm,Calm,-,N/A,,Clear,0,2013-10-14 05:15:00
1:35 AM,35.6,33.8,93,30.30,10.0,Calm,Calm,-,N/A,,Clear,0,2013-10-14 05:35:00
1:55 AM,35.6,32.0,87,30.30,10.0,Calm,Calm,-,N/A,,Clear,0,2013-10-14 05:55:00
2:15 AM,35.6,32.0,87,30.30,0.8,Calm,Calm,-,N/A,,Mostly Cloudy,0,2013-10-14 06:15:00
2:35 AM,33.8,30.2,87,30.29,10.0,Calm,Calm,-,N/A,,Partly Cloudy,0,2013-10-14 06:35:00
2:55 AM,35.6,33.8,93,30.28,10.0,Calm,Calm,-,N/A,,Clear,0,2013-10-14 06:55:00
3:15 AM,35.6,32.0,87,30.28,8.0,Calm,Calm,-,N/A,,Clear,0,2013-10-14 07:15:00
3:35 AM,35.6,33.8,93,30.28,10.0,Calm,Calm,-,N/A,,Scattered Clouds,0,2013-10-14 07:35:00
3:55 AM,35.6,30.2,81,30.29,1.0,Calm,Calm,-,N/A,,Overcast,0,2013-10-14 07:55:00
4:15 AM,35.6,32.0,87,30.29,0.2,Calm,Calm,-,N/A,,Overcast,0,2013-10-14 08:15:00
4:35 AM,37.4,33.8,87,30.29,10.0,Calm,Calm,-,N/A,,Overcast,0,2013-10-14 08:35:00
4:55 AM,37.4,33.8,87,30.30,10.0,Calm,Calm,-,N/A,,Overcast,0,2013-10-14 08:55:00
5:15 AM,39.2,37.4,93,30.30,0.8,Calm,Calm,-,N/A,,Overcast,0,2013-10-14 09:15:00
5:35 AM,41.0,37.4,87,30.30,0.8,Calm,Calm,-,N/A,,Overcast,0,2013-10-14 09:35:00
5:55 AM,41.0,37.4,87,30.30,0.5,South,3.5,-,N/A,,Overcast,170,2013-10-14 09:55:00
6:15 AM,42.8,39.2,87,30.30,0.5,South,5.8,-,N/A,,Overcast,170,2013-10-14 10:15:00
6:35 AM,42.8,39.2,87,30.29,0.8,SSE,4.6,-,N/A,,Overcast,160,2013-10-14 10:35:00
6:55 AM,41.0,37.4,87,30.29,0.5,SSE,4.6,-,N/A,,Overcast,150,2013-10-14 10:55:00
7:15 AM,41.0,37.4,87,30.29,0.5,South,3.5,-,N/A,,Overcast,180,2013-10-14 11:15:00
7:35 AM,42.8,39.2,87,30.29,1.0,South,6.9,-,N/A,,Overcast,180,2013-10-14 11:35:00
7:55 AM,42.8,37.4,81,30.29,2.5,South,9.2,-,N/A,,Overcast,180,2013-10-14 11:55:00
8:15 AM,42.8,39.2,87,30.29,1.2,South,6.9,-,N/A,,Overcast,180,2013-10-14 12:15:00
8:35 AM,42.8,39.2,87,30.29,1.5,SSW,5.8,-,N/A,,Overcast,200,2013-10-14 12:35:00
8:55 AM,42.8,39.2,87,30.28,6.0,South,9.2,-,N/A,,Overcast,180,2013-10-14 12:55:00
9:15 AM,44.6,39.2,81,30.28,9.0,South,4.6,-,N/A,,Overcast,180,2013-10-14 13:15:00
9:35 AM,44.6,41.0,87,30.29,10.0,SSW,4.6,-,N/A,,Overcast,200,2013-10-14 13:35:00
9:55 AM,44.6,41.0,87,30.28,10.0,SSW,5.8,-,N/A,,Overcast,210,2013-10-14 13:55:00
10:15 AM,46.4,42.8,87,30.28,10.0,SSE,4.6,-,N/A,,Overcast,160,2013-10-14 14:15:00
10:35 AM,48.2,42.8,82,30.28,10.0,South,5.8,-,N/A,,Overcast,180,2013-10-14 14:35:00
10:55 AM,48.2,42.8,82,30.28,10.0,South,3.5,-,N/A,,Overcast,180,2013-10-14 14:55:00
11:15 AM,50.0,42.8,76,30.27,10.0,South,4.6,-,N/A,,Overcast,170,2013-10-14 15:15:00
11:35 AM,51.8,42.8,71,30.27,10.0,SW,6.9,-,N/A,,Overcast,230,2013-10-14 15:35:00
11:55 AM,51.8,42.8,71,30.26,10.0,SW,4.6,-,N/A,,Overcast,220,2013-10-14 15:55:00
12:15 PM,51.8,44.6,76,30.25,10.0,SSW,4.6,-,N/A,,Overcast,210,2013-10-14 16:15:00
12:35 PM,51.8,44.6,76,30.24,10.0,SSE,5.8,-,N/A,,Overcast,150,2013-10-14 16:35:00
12:55 PM,51.8,44.6,76,30.23,9.0,SSE,5.8,-,N/A,,Overcast,150,2013-10-14 16:55:00
1:15 PM,51.8,46.4,82,30.22,9.0,SE,5.8,-,N/A,,Overcast,140,2013-10-14 17:15:00
1:35 PM,53.6,46.4,77,30.22,9.0,SSE,5.8,-,N/A,,Overcast,150,2013-10-14 17:35:00
1:55 PM,53.6,46.4,77,30.22,9.0,SE,4.6,-,N/A,,Overcast,140,2013-10-14 17:55:00
2:15 PM,53.6,44.6,72,30.22,10.0,South,4.6,-,N/A,,Overcast,190,2013-10-14 18:15:00
2:35 PM,53.6,46.4,77,30.21,10.0,South,4.6,-,N/A,,Overcast,170,2013-10-14 18:35:00
2:55 PM,53.6,46.4,77,30.21,10.0,SSE,5.8,-,N/A,,Overcast,160,2013-10-14 18:55:00
3:15 PM,53.6,46.4,77,30.21,9.0,SSW,5.8,-,N/A,,Overcast,200,2013-10-14 19:15:00
3:35 PM,53.6,48.2,82,30.21,4.0,South,8.1,-,N/A,,Overcast,180,2013-10-14 19:35:00
3:55 PM,51.8,48.2,88,30.20,5.0,South,6.9,-,N/A,,Overcast,180,2013-10-14 19:55:00
4:15 PM,51.8,48.2,88,30.20,2.5,South,6.9,-,N/A,,Overcast,180,2013-10-14 20:15:00
4:35 PM,51.8,48.2,88,30.20,4.0,South,5.8,-,N/A,,Overcast,180,2013-10-14 20:35:00
4:55 PM,51.8,48.2,88,30.19,6.0,South,5.8,-,N/A,,Overcast,180,2013-10-14 20:55:00
5:15 PM,51.8,48.2,88,30.19,10.0,South,3.5,-,N/A,,Overcast,190,2013-10-14 21:15:00
5:35 PM,51.8,48.2,88,30.19,10.0,South,3.5,-,N/A,,Overcast,190,2013-10-14 21:35:00
5:55 PM,51.8,48.2,88,30.20,10.0,South,3.5,-,N/A,,Overcast,180,2013-10-14 21:55:00
6:15 PM,51.8,48.2,88,30.21,10.0,South,3.5,-,N/A,,Overcast,180,2013-10-14 22:15:00
6:35 PM,51.8,48.2,88,30.21,10.0,SSW,3.5,-,N/A,,Overcast,200,2013-10-14 22:35:00
6:55 PM,51.8,48.2,88,30.21,10.0,SSW,3.5,-,N/A,,Overcast,200,2013-10-14 22:55:00
7:15 PM,51.8,48.2,88,30.22,10.0,Calm,Calm,-,N/A,,Overcast,0,2013-10-14 23:15:00
7:35 PM,51.8,48.2,88,30.22,10.0,SW,3.5,-,N/A,,Overcast,220,2013-10-14 23:35:00
7:55 PM,51.8,48.2,88,30.22,10.0,SSW,3.5,-,N/A,,Overcast,210,2013-10-14 23:55:00
8:15 PM,51.8,48.2,88,30.22,10.0,Calm,Calm,-,N/A,,Overcast,0,2013-10-15 00:15:00
8:35 PM,51.8,48.2,88,30.22,10.0,Calm,Calm,-,N/A,,Overcast,0,2013-10-15 00:35:00
8:55 PM,53.6,48.2,82,30.22,10.0,Calm,Calm,-,N/A,,Overcast,0,2013-10-15 00:55:00
9:15 PM,51.8,48.2,88,30.22,10.0,Calm,Calm,-,N/A,,Overcast,0,2013-10-15 01:15:00
9:35 PM,51.8,48.2,88,30.23,10.0,Calm,Calm,-,N/A,,Overcast,0,2013-10-15 01:35:00
9:55 PM,51.8,48.2,88,30.22,10.0,Calm,Calm,-,N/A,,Overcast,0,2013-10-15 01:55:00
10:15 PM,51.8,48.2,88,30.22,8.0,Calm,Calm,-,N/A,,Overcast,0,2013-10-15 02:15:00
10:35 PM,51.8,48.2,88,30.22,10.0,SSW,3.5,-,N/A,,Overcast,200,2013-10-15 02:35:00
10:55 PM,51.8,48.2,88,30.22,10.0,Calm,Calm,-,N/A,,Overcast,0,2013-10-15 02:55:00
11:15 PM,51.8,48.2,88,30.22,10.0,Calm,Calm,-,N/A,,Overcast,0,2013-10-15 03:15:00
11:35 PM,51.8,48.2,88,30.21,9.0,South,3.5,-,N/A,,Overcast,190,2013-10-15 03:35:00
11:55 PM,51.8,48.2,88,30.22,8.0,Calm,Calm,-,N/A,,Overcast,0,2013-10-15 03:55:00